2023-123A (57654 NORAD) Tracking and Keplerian Element Data

This shows tracking and keplerian element data for the satellite.

Feedback or suggestion? Click here.




ElementValue
Catalog57654
Name2023-123A
Epoch Orbit92
Epoch Day238.97184148
Epoch Year2023
RAAN155.3665
Inclination97.9013
Eccentricity0.0005392
Argument of Perigee208.085
Mean Anonmoly213.7527
Mean Motion14.90627715
Decay Rate5.764E-05
L11 57654U 23123A 23238.97184148 .00005764 00000+0 59393-3 0 9991
L22 57654 97.9013 155.3665 0005392 208.0850 213.7527 14.90627715 921



Live tracking and technical data element details for 2023-123A (NORAD 57654). 2023-123A can be tracked NOW for your location showing map with azimuth and elevation plus other details from your city location.







IsCatalogInMostPopularTable: catalog: 57654, numindb: 21
Update: records affected: 1



GetName: 57654 2023-123A

Hit Count: updated at: Mon, 04 Dec 2023 03:02:49 GMT